timestamp,wind_dir_avg,wind_spd_avg,wind_spd_max_dir,wind_spd_gust,battery_voltage,lat,long
2023-09-12 00:04:00+00:00,72.0,4.1,72.0,5.29,12.41,47.59359,-54.27349
2023-09-12 00:14:00+00:00,74.0,5.02,68.0,6.87,12.41,47.59359,-54.27349
2023-09-12 00:24:00+00:00,72.0,5.12,68.0,5.89,12.41,47.59359,-54.27349
2023-09-12 00:34:00+00:00,70.0,6.36,69.0,7.61,12.41,47.59359,-54.27349
2023-09-12 00:44:00+00:00,71.0,6.49,70.0,7.23,12.41,47.59359,-54.27349
2023-09-12 00:54:00+00:00,73.0,5.73,70.0,7.28,12.41,47.59359,-54.27349
2023-09-12 01:04:00+00:00,84.0,3.49,91.0,5.43,12.41,47.59359,-54.27349
2023-09-12 01:14:01+00:00,75.0,4.33,74.0,5.3,12.41,47.59359,-54.27349
2023-09-12 01:24:01+00:00,75.0,4.44,70.0,6.49,12.41,47.59359,-54.27349
2023-09-12 01:34:01+00:00,71.0,5.47,74.0,6.46,12.41,47.59359,-54.27349
2023-09-12 01:44:01+00:00,83.0,3.61,81.0,5.74,12.41,47.59359,-54.27349
2023-09-12 01:54:01+00:00,76.0,3.77,69.0,5.66,12.41,47.59359,-54.27349
2023-09-12 02:04:01+00:00,77.0,3.92,69.0,5.92,12.41,47.59359,-54.27349
2023-09-12 02:14:00+00:00,68.0,5.52,69.0,6.46,12.41,47.59359,-54.27349
2023-09-12 02:24:00+00:00,74.0,4.64,65.0,6.54,12.41,47.59359,-54.27349
2023-09-12 02:34:00+00:00,73.0,4.6,70.0,5.67,12.41,47.59359,-54.27349
2023-09-12 02:44:00+00:00,78.0,4.33,83.0,5.31,12.41,47.59359,-54.27349
2023-09-12 02:54:00+00:00,74.0,4.54,66.0,6.0,12.41,47.59359,-54.27349
2023-09-12 03:04:00+00:00,72.0,4.7,69.0,6.16,12.41,47.59359,-54.27349
2023-09-12 03:14:00+00:00,66.0,5.73,63.0,6.69,12.41,47.59359,-54.27349
2023-09-12 03:24:00+00:00,65.0,5.84,66.0,6.75,12.41,47.59359,-54.27349
2023-09-12 03:34:00+00:00,67.0,5.75,66.0,6.56,12.41,47.59359,-54.27349
2023-09-12 03:44:00+00:00,72.0,5.81,73.0,6.92,12.41,47.59359,-54.27349
2023-09-12 03:54:00+00:00,67.0,5.71,62.0,7.29,12.41,47.59359,-54.27349
2023-09-12 04:04:00+00:00,69.0,6.42,69.0,7.23,12.41,47.59359,-54.27349
2023-09-12 04:14:00+00:00,64.0,5.64,67.0,6.8,12.41,47.59359,-54.27349
2023-09-12 04:24:00+00:00,68.0,5.67,64.0,6.05,12.41,47.59359,-54.27349
2023-09-12 04:34:00+00:00,67.0,5.92,70.0,6.81,12.41,47.59359,-54.27349
2023-09-12 04:44:00+00:00,71.0,5.26,61.0,7.18,12.41,47.59359,-54.27349
2023-09-12 04:54:00+00:00,69.0,5.91,68.0,6.79,12.41,47.59359,-54.27349
2023-09-12 05:04:00+00:00,64.0,5.41,54.0,6.69,12.41,47.59359,-54.27349
2023-09-12 05:14:00+00:00,72.0,6.48,72.0,7.54,12.33,47.59359,-54.27349
2023-09-12 05:24:00+00:00,69.0,7.04,67.0,7.61,12.33,47.59359,-54.27349
2023-09-12 05:34:00+00:00,69.0,7.08,68.0,8.23,12.33,47.59359,-54.27349
2023-09-12 05:44:00+00:00,67.0,6.5,67.0,7.32,12.33,47.59359,-54.27349
2023-09-12 05:54:00+00:00,65.0,6.82,63.0,7.78,12.33,47.59359,-54.27349
2023-09-12 06:04:00+00:00,71.0,5.86,82.0,7.04,12.33,47.59359,-54.27349
2023-09-12 06:14:00+00:00,70.0,6.44,70.0,7.84,12.33,47.59359,-54.27349
2023-09-12 06:24:00+00:00,70.0,5.76,68.0,7.63,12.33,47.59359,-54.27349
2023-09-12 06:34:00+00:00,72.0,6.09,76.0,7.21,12.33,47.59359,-54.27349
2023-09-12 06:44:00+00:00,73.0,5.09,73.0,6.48,12.33,47.59359,-54.27349
2023-09-12 06:54:00+00:00,72.0,4.76,66.0,6.85,12.33,47.59359,-54.27349
2023-09-12 07:04:00+00:00,73.0,4.56,77.0,6.03,12.33,47.59359,-54.27349
2023-09-12 07:14:01+00:00,65.0,5.65,69.0,6.89,12.25,47.59359,-54.27349
2023-09-12 07:24:01+00:00,74.0,4.96,70.0,6.34,12.25,47.59359,-54.27349
2023-09-12 07:34:01+00:00,75.0,4.0,68.0,5.53,12.25,47.59359,-54.27349
2023-09-12 07:44:01+00:00,74.0,5.89,78.0,6.92,12.25,47.59359,-54.27349
2023-09-12 07:54:01+00:00,67.0,6.62,66.0,7.32,12.25,47.59359,-54.27349
2023-09-12 08:04:01+00:00,74.0,5.66,63.0,7.07,12.25,47.59359,-54.27349
2023-09-12 08:14:00+00:00,68.0,6.87,69.0,8.68,12.25,47.59359,-54.27349
2023-09-12 08:24:00+00:00,67.0,7.04,59.0,7.95,12.25,47.59359,-54.27349
2023-09-12 08:34:00+00:00,65.0,6.85,62.0,7.57,12.25,47.59359,-54.27349
2023-09-12 08:44:00+00:00,65.0,7.01,58.0,8.18,12.25,47.59359,-54.27349
2023-09-12 08:54:00+00:00,67.0,6.96,66.0,8.19,12.25,47.59359,-54.27349
2023-09-12 09:04:00+00:00,66.0,6.67,64.0,7.61,12.25,47.59359,-54.27349
2023-09-12 09:14:01+00:00,66.0,6.56,68.0,7.75,12.17,47.59359,-54.27349
2023-09-12 09:24:01+00:00,65.0,6.99,62.0,8.17,12.17,47.59359,-54.27349
2023-09-12 09:34:01+00:00,58.0,6.66,55.0,8.67,12.17,47.59359,-54.27349
2023-09-12 09:44:01+00:00,61.0,7.22,61.0,8.8,12.17,47.59359,-54.27349
2023-09-12 09:54:01+00:00,65.0,6.47,65.0,7.75,12.17,47.59359,-54.27349
2023-09-12 10:04:01+00:00,60.0,7.36,55.0,8.55,12.17,47.59359,-54.27349
2023-09-12 10:14:01+00:00,60.0,8.07,59.0,8.8,12.17,47.59359,-54.27349
2023-09-12 10:24:01+00:00,66.0,7.85,60.0,9.13,12.17,47.59359,-54.27349
2023-09-12 10:34:01+00:00,65.0,7.44,64.0,8.84,12.17,47.59359,-54.27349
2023-09-12 10:44:01+00:00,75.0,5.98,74.0,7.49,12.17,47.59359,-54.27349
2023-09-12 10:54:01+00:00,74.0,5.67,79.0,7.25,12.17,47.59359,-54.27349
2023-09-12 11:04:01+00:00,70.0,7.74,69.0,8.83,12.17,47.59359,-54.27349
2023-09-12 11:14:01+00:00,67.0,7.45,69.0,8.14,12.73,47.59359,-54.27349
2023-09-12 11:24:01+00:00,72.0,7.01,72.0,8.0,12.73,47.59359,-54.27349
2023-09-12 11:34:01+00:00,70.0,6.93,71.0,8.09,12.73,47.59359,-54.27349
2023-09-12 11:44:01+00:00,69.0,7.25,69.0,8.06,12.73,47.59359,-54.27349
2023-09-12 11:54:01+00:00,72.0,6.01,63.0,7.43,12.73,47.59359,-54.27349
2023-09-12 12:04:01+00:00,72.0,5.96,67.0,8.55,12.73,47.59359,-54.27349
2023-09-12 12:14:00+00:00,75.0,6.43,67.0,7.66,13.29,47.59359,-54.27349
2023-09-12 12:24:00+00:00,76.0,5.71,71.0,7.26,13.29,47.59359,-54.27349
2023-09-12 12:34:00+00:00,79.0,5.44,82.0,7.59,13.29,47.59359,-54.27349
2023-09-12 12:44:00+00:00,73.0,6.38,70.0,8.19,13.29,47.59359,-54.27349
2023-09-12 12:54:00+00:00,75.0,6.84,70.0,8.13,13.29,47.59359,-54.27349
2023-09-12 13:04:00+00:00,77.0,6.34,62.0,8.29,13.29,47.59359,-54.27349
2023-09-12 13:14:00+00:00,77.0,5.52,62.0,7.33,13.29,47.59359,-54.27349
2023-09-12 13:24:00+00:00,70.0,5.84,90.0,7.97,13.29,47.59359,-54.27349
2023-09-12 13:34:00+00:00,75.0,5.58,62.0,7.61,13.29,47.59359,-54.27349
2023-09-12 13:44:00+00:00,72.0,6.87,70.0,8.01,13.29,47.59359,-54.27349
2023-09-12 13:54:00+00:00,76.0,4.82,82.0,6.07,13.29,47.59359,-54.27349
2023-09-12 14:04:00+00:00,69.0,6.77,67.0,7.93,13.29,47.59359,-54.27349
2023-09-12 14:14:00+00:00,72.0,6.0,66.0,7.98,13.29,47.59359,-54.27349
2023-09-12 14:24:00+00:00,70.0,5.6,62.0,7.63,13.29,47.59359,-54.27349
2023-09-12 14:34:00+00:00,74.0,7.31,76.0,8.77,13.29,47.59359,-54.27349
2023-09-12 14:44:00+00:00,71.0,7.22,55.0,8.23,13.29,47.59359,-54.27349
2023-09-12 14:54:00+00:00,69.0,7.96,65.0,9.02,13.29,47.59359,-54.27349
2023-09-12 15:04:00+00:00,76.0,6.17,68.0,8.04,13.29,47.59359,-54.27349
2023-09-12 15:14:00+00:00,75.0,5.75,76.0,7.36,13.68,47.59359,-54.27349
2023-09-12 15:24:00+00:00,69.0,6.99,71.0,8.05,13.68,47.59359,-54.27349
2023-09-12 15:34:00+00:00,72.0,6.39,61.0,8.51,13.68,47.59359,-54.27349
2023-09-12 15:44:00+00:00,69.0,6.95,64.0,8.64,13.68,47.59359,-54.27349
2023-09-12 15:54:00+00:00,70.0,7.51,53.0,9.41,13.68,47.59359,-54.27349
2023-09-12 16:04:00+00:00,74.0,7.17,66.0,9.08,13.68,47.59359,-54.27349
2023-09-12 16:14:00+00:00,71.0,7.16,70.0,8.37,13.6,47.59359,-54.27349
2023-09-12 16:24:00+00:00,70.0,6.58,69.0,7.83,13.6,47.59359,-54.27349
2023-09-12 16:34:00+00:00,65.0,7.16,62.0,7.9,13.6,47.59359,-54.27349
2023-09-12 16:44:00+00:00,71.0,7.02,69.0,8.79,13.6,47.59359,-54.27349
2023-09-12 16:54:00+00:00,68.0,7.77,66.0,8.7,13.6,47.59359,-54.27349
2023-09-12 17:04:00+00:00,67.0,7.16,63.0,8.17,13.6,47.59359,-54.27349
2023-09-12 17:14:00+00:00,69.0,7.56,63.0,8.36,13.68,47.59359,-54.27349
2023-09-12 17:24:00+00:00,72.0,6.38,66.0,7.85,13.68,47.59359,-54.27349
2023-09-12 17:34:00+00:00,71.0,7.19,64.0,8.92,13.68,47.59359,-54.27349
2023-09-12 17:44:00+00:00,74.0,6.62,61.0,8.98,13.68,47.59359,-54.27349
2023-09-12 17:54:00+00:00,78.0,6.41,84.0,8.49,13.68,47.59359,-54.27349
2023-09-12 18:04:00+00:00,74.0,6.52,74.0,7.94,13.68,47.59359,-54.27349
2023-09-12 18:14:00+00:00,71.0,5.81,77.0,7.69,13.53,47.59359,-54.27349
2023-09-12 18:24:00+00:00,66.0,7.69,66.0,8.75,13.53,47.59359,-54.27349
2023-09-12 18:34:00+00:00,70.0,6.54,69.0,8.22,13.53,47.59359,-54.27349
2023-09-12 18:44:00+00:00,70.0,7.81,69.0,8.66,13.53,47.59359,-54.27349
2023-09-12 18:54:00+00:00,65.0,7.63,69.0,8.63,13.53,47.59359,-54.27349
2023-09-12 19:04:00+00:00,71.0,7.8,69.0,8.83,13.53,47.59359,-54.27349
2023-09-12 19:14:00+00:00,69.0,8.76,71.0,10.08,13.37,47.59359,-54.27349
2023-09-12 19:24:00+00:00,74.0,7.27,69.0,8.36,13.37,47.59359,-54.27349
2023-09-12 19:34:00+00:00,71.0,7.14,71.0,8.52,13.37,47.59359,-54.27349
2023-09-12 19:44:00+00:00,69.0,7.34,66.0,8.95,13.37,47.59359,-54.27349
2023-09-12 19:54:00+00:00,71.0,7.34,69.0,8.5,13.37,47.59359,-54.27349
2023-09-12 20:04:00+00:00,61.0,7.1,58.0,8.5,13.37,47.59359,-54.27349
2023-09-12 20:14:00+00:00,67.0,7.49,61.0,8.56,13.13,47.59359,-54.27349
2023-09-12 20:24:00+00:00,69.0,9.02,71.0,9.64,13.13,47.59359,-54.27349
2023-09-12 20:34:00+00:00,65.0,8.03,61.0,9.32,13.13,47.59359,-54.27349
2023-09-12 20:44:00+00:00,70.0,7.88,64.0,8.9,13.13,47.59359,-54.27349
2023-09-12 20:54:00+00:00,74.0,6.17,74.0,7.76,13.13,47.59359,-54.27349
2023-09-12 21:04:00+00:00,76.0,5.86,63.0,8.35,13.13,47.59359,-54.27349
2023-09-12 21:14:01+00:00,76.0,5.2,76.0,6.99,12.89,47.59359,-54.27349
2023-09-12 21:24:01+00:00,83.0,3.99,89.0,5.92,12.89,47.59359,-54.27349
2023-09-12 21:34:01+00:00,77.0,5.16,64.0,7.25,12.89,47.59359,-54.27349
2023-09-12 21:44:01+00:00,81.0,3.36,76.0,5.81,12.89,47.59359,-54.27349
2023-09-12 21:54:01+00:00,83.0,4.65,94.0,7.18,12.89,47.59359,-54.27349
2023-09-12 22:04:01+00:00,77.0,5.04,62.0,7.06,12.89,47.59359,-54.27349
2023-09-12 22:14:00+00:00,91.0,4.27,86.0,6.37,12.49,47.59359,-54.27349
2023-09-12 22:24:00+00:00,81.0,4.38,95.0,6.77,12.49,47.59359,-54.27349
2023-09-12 22:34:00+00:00,75.0,6.34,63.0,8.01,12.49,47.59359,-54.27349
2023-09-12 22:44:00+00:00,80.0,3.97,85.0,5.99,12.49,47.59359,-54.27349
2023-09-12 22:54:00+00:00,84.0,4.94,75.0,7.32,12.49,47.59359,-54.27349
2023-09-12 23:04:00+00:00,79.0,5.18,94.0,7.8,12.49,47.59359,-54.27349
2023-09-12 23:14:00+00:00,75.0,4.65,63.0,6.59,12.41,47.59359,-54.27349
2023-09-12 23:24:00+00:00,77.0,5.3,64.0,7.16,12.41,47.59359,-54.27349
2023-09-12 23:34:00+00:00,72.0,6.44,67.0,7.84,12.41,47.59359,-54.27349
2023-09-12 23:44:00+00:00,79.0,5.02,73.0,6.66,12.41,47.59359,-54.27349
2023-09-12 23:54:00+00:00,69.0,6.46,65.0,8.22,12.41,47.59359,-54.27349
